Radiation Dose at Monitoring Post of Fukushima Daini Nuclear Power Station
Date,Time,MP-1(microSv/h),MP-2(microSv/h),MP-3(microSv/h),MP-4(microSv/h),MP-5(microSv/h),MP-6(microSv/h),MP-7(microSv/h),Wind Direction,Wind Velocity(m/s),Rain
2022/11/18,00:00,0.159,0.143,0.223,0.218,0.217,0.125,0.080,north-northwest,5.3,No
2022/11/18,00:10,0.158,0.143,0.222,0.218,0.217,0.126,0.080,north-northwest,4.5,No
2022/11/18,00:20,0.157,0.144,0.224,0.217,0.216,0.127,0.080,north-northwest,3.5,No
2022/11/18,00:30,0.157,0.143,0.224,0.216,0.216,0.125,0.080,north-northwest,6.0,No
2022/11/18,00:40,0.157,0.142,0.221,0.218,0.216,0.126,0.079,north-northwest,4.0,No
2022/11/18,00:50,0.158,0.143,0.223,0.218,0.217,0.125,0.080,northwest,4.8,No
2022/11/18,01:00,0.158,0.143,0.223,0.218,0.215,0.126,0.080,northwest,5.7,No
2022/11/18,01:10,0.158,0.143,0.224,0.216,0.216,0.126,0.079,northwest,5.4,No
2022/11/18,01:20,0.158,0.144,0.222,0.217,0.216,0.126,0.080,northwest,5.4,No
2022/11/18,01:30,0.158,0.143,0.223,0.218,0.216,0.126,0.080,northwest,5.8,No
2022/11/18,01:40,0.158,0.144,0.222,0.218,0.216,0.125,0.080,north-northwest,6.4,No
2022/11/18,01:50,0.158,0.143,0.222,0.217,0.217,0.125,0.080,north-northwest,6.3,No
2022/11/18,02:00,0.158,0.143,0.222,0.217,0.217,0.126,0.080,north-northwest,6.2,No
2022/11/18,02:10,0.158,0.142,0.222,0.218,0.215,0.126,0.080,northwest,6.1,No
2022/11/18,02:20,0.159,0.144,0.222,0.218,0.216,0.125,0.079,northwest,6.4,No
2022/11/18,02:30,0.158,0.143,0.222,0.217,0.216,0.126,0.080,northwest,6.3,No
2022/11/18,02:40,0.158,0.143,0.223,0.218,0.216,0.125,0.079,northwest,6.5,No
2022/11/18,02:50,0.157,0.143,0.222,0.217,0.215,0.125,0.079,northwest,6.3,No
2022/11/18,03:00,0.157,0.143,0.222,0.218,0.216,0.126,0.080,north-northwest,6.9,No
2022/11/18,03:10,0.157,0.143,0.222,0.217,0.217,0.126,0.079,north-northwest,7.2,No
2022/11/18,03:20,0.157,0.143,0.222,0.217,0.216,0.126,0.079,north-northwest,7.5,No
2022/11/18,03:30,0.157,0.143,0.224,0.217,0.215,0.125,0.079,northwest,6.8,No
2022/11/18,03:40,0.158,0.144,0.223,0.218,0.217,0.125,0.079,northwest,7.2,No
2022/11/18,03:50,0.158,0.142,0.222,0.218,0.217,0.125,0.080,northwest,6.9,No
2022/11/18,04:00,0.157,0.142,0.222,0.216,0.215,0.126,0.080,northwest,6.9,No
2022/11/18,04:10,0.159,0.143,0.222,0.217,0.216,0.126,0.079,northwest,6.5,No
2022/11/18,04:20,0.159,0.143,0.222,0.217,0.216,0.124,0.079,northwest,7.0,No
2022/11/18,04:30,0.157,0.143,0.222,0.218,0.216,0.126,0.079,northwest,6.9,No
2022/11/18,04:40,0.158,0.143,0.223,0.217,0.216,0.126,0.079,northwest,7.3,No
2022/11/18,04:50,0.159,0.144,0.222,0.217,0.216,0.126,0.079,northwest,6.9,No
2022/11/18,05:00,0.159,0.143,0.224,0.217,0.217,0.126,0.079,northwest,7.0,No
2022/11/18,05:10,0.158,0.143,0.222,0.217,0.216,0.125,0.079,northwest,6.9,No
2022/11/18,05:20,0.157,0.143,0.222,0.217,0.217,0.125,0.080,north-northwest,6.6,No
2022/11/18,05:30,0.158,0.143,0.223,0.217,0.217,0.126,0.080,northwest,6.3,No
2022/11/18,05:40,0.158,0.143,0.223,0.217,0.216,0.126,0.080,northwest,6.2,No
2022/11/18,05:50,0.158,0.144,0.222,0.217,0.216,0.125,0.080,northwest,6.4,No
2022/11/18,06:00,0.157,0.143,0.223,0.217,0.216,0.124,0.079,northwest,6.6,No
2022/11/18,06:10,0.158,0.144,0.223,0.218,0.216,0.126,0.080,northwest,6.7,No
2022/11/18,06:20,0.158,0.142,0.222,0.216,0.216,0.125,0.080,northwest,6.3,No
2022/11/18,06:30,0.157,0.144,0.222,0.217,0.216,0.125,0.079,northwest,6.4,No
2022/11/18,06:40,0.159,0.142,0.223,0.217,0.216,0.125,0.079,northwest,5.9,No
2022/11/18,06:50,0.158,0.143,0.224,0.218,0.215,0.126,0.080,northwest,5.6,No
2022/11/18,07:00,0.157,0.142,0.222,0.218,0.214,0.126,0.080,northwest,6.1,No
2022/11/18,07:10,0.158,0.143,0.222,0.217,0.216,0.125,0.080,northwest,6.1,No
2022/11/18,07:20,0.158,0.142,0.223,0.217,0.215,0.125,0.079,north-northwest,6.3,No
2022/11/18,07:30,0.157,0.143,0.223,0.217,0.214,0.125,0.079,northwest,6.1,No
2022/11/18,07:40,0.158,0.143,0.222,0.216,0.216,0.126,0.079,northwest,5.6,No
2022/11/18,07:50,0.158,0.143,0.223,0.218,0.216,0.125,0.079,northwest,5.5,No
2022/11/18,08:00,0.157,0.144,0.222,0.217,0.215,0.126,0.080,north-northwest,6.4,No
2022/11/18,08:10,0.157,0.143,0.221,0.216,0.216,0.125,0.079,north-northwest,6.2,No
2022/11/18,08:20,0.159,0.143,0.222,0.216,0.216,0.126,0.080,north-northwest,5.3,No
2022/11/18,08:30,0.159,0.143,0.222,0.218,0.217,0.126,0.080,northwest,4.0,No
2022/11/18,08:40,0.157,0.143,0.223,0.217,0.216,0.126,0.079,northwest,4.0,No
2022/11/18,08:50,0.158,0.142,0.222,0.216,0.217,0.125,0.079,northwest,3.8,No
2022/11/18,09:00,0.160,0.142,0.222,0.218,0.217,0.125,0.079,northwest,4.2,No
2022/11/18,09:10,0.158,0.143,0.223,0.216,0.217,0.125,0.080,north-northwest,3.6,No
2022/11/18,09:20,0.158,0.142,0.222,0.217,0.216,0.125,0.080,north-northwest,3.2,No
2022/11/18,09:30,0.157,0.143,0.221,0.216,0.216,0.126,0.079,north-northwest,3.5,No
2022/11/18,09:40,0.157,0.142,0.222,0.218,0.216,0.126,0.079,north-northwest,3.0,No
2022/11/18,09:50,0.157,0.143,0.223,0.216,0.214,0.125,0.079,north-northwest,3.5,No
2022/11/18,10:00,0.156,0.142,0.222,0.217,0.217,0.126,0.079,northwest,3.5,No
2022/11/18,10:10,0.158,0.142,0.222,0.216,0.215,0.126,0.079,north-northeast,2.1,No
2022/11/18,10:20,0.157,0.143,0.220,0.217,0.215,0.126,0.080,northeast,3.8,No
2022/11/18,10:30,0.157,0.142,0.222,0.217,0.216,0.125,0.079,north,2.7,No
2022/11/18,10:40,0.157,0.143,0.220,0.217,0.212,0.127,0.080,north,2.9,No
2022/11/18,10:50,0.158,0.142,0.221,0.218,0.216,0.126,0.080,north,2.6,No
2022/11/18,11:00,0.157,0.144,0.222,0.217,0.215,0.126,0.080,north-northeast,2.9,No
2022/11/18,11:10,0.158,0.143,0.221,0.217,0.217,0.125,0.079,northeast,4.5,No
2022/11/18,11:20,0.158,0.144,0.222,0.217,0.215,0.126,0.080,north-northeast,3.7,No
2022/11/18,11:30,0.158,0.142,0.222,0.217,0.214,0.125,0.080,north-northeast,3.4,No
2022/11/18,11:40,0.156,0.143,0.222,0.216,0.217,0.126,0.080,northeast,3.8,No
2022/11/18,11:50,0.157,0.143,0.221,0.219,0.215,0.126,0.080,northeast,3.3,No
2022/11/18,12:00,0.158,0.143,0.223,0.216,0.217,0.126,0.079,north-northeast,2.8,No
2022/11/18,12:10,0.156,0.142,0.221,0.217,0.215,0.127,0.080,northeast,2.6,No
2022/11/18,12:20,0.158,0.144,0.223,0.218,0.216,0.126,0.079,northeast,2.5,No
2022/11/18,12:30,0.157,0.142,0.222,0.217,0.219,0.126,0.080,north-northeast,2.1,No
2022/11/18,12:40,0.158,0.144,0.223,0.216,0.214,0.126,0.080,northeast,2.1,No
2022/11/18,12:50,0.158,0.142,0.223,0.218,0.216,0.126,0.080,northeast,1.7,No
2022/11/18,13:00,0.158,0.143,0.223,0.215,0.215,0.126,0.080,east,1.5,No
2022/11/18,13:10,0.157,0.143,0.222,0.217,0.219,0.126,0.079,east-northeast,1.5,No
2022/11/18,13:20,0.158,0.144,0.224,0.216,0.215,0.125,0.080,northeast,1.4,No
2022/11/18,13:30,0.158,0.143,0.221,0.215,0.217,0.127,0.079,east-southeast,1.1,No
2022/11/18,13:40,0.157,0.143,0.223,0.217,0.216,0.126,0.080,east,0.8,No
2022/11/18,13:50,0.157,0.142,0.222,-,0.216,0.126,0.079,east-southeast,1.3,No
2022/11/18,14:00,0.157,0.142,0.222,-,0.216,0.125,0.079,east-southeast,1.3,No
2022/11/18,14:10,0.158,0.142,0.224,-,0.216,0.126,0.079,east-southeast,1.2,No
2022/11/18,14:20,0.157,0.142,0.222,-,0.216,0.125,0.080,east-southeast,1.0,No
2022/11/18,14:30,0.158,0.142,0.223,-,0.216,0.126,0.080,east-southeast,1.5,No
2022/11/18,14:40,0.157,0.144,0.224,-,0.216,0.127,0.080,southeast,1.7,No
2022/11/18,14:50,0.158,0.142,0.223,-,0.217,0.125,0.080,south-southeast,1.9,No
2022/11/18,15:00,0.158,0.143,0.222,0.218,0.217,0.125,0.080,south-southeast,2.1,No
2022/11/18,15:10,0.158,0.143,0.223,0.216,0.218,0.125,0.079,south-southeast,1.6,No
2022/11/18,15:20,0.158,0.144,0.223,0.218,0.215,0.127,0.080,south-southeast,2.1,No
2022/11/18,15:30,0.157,0.143,0.223,0.217,0.218,0.126,0.079,south,2.8,No
2022/11/18,15:40,0.158,0.142,0.223,0.218,0.215,0.127,0.080,south-southeast,2.9,No
2022/11/18,15:50,0.157,0.143,0.223,0.219,0.217,0.125,0.080,south,2.7,No
2022/11/18,16:00,0.156,0.143,0.222,0.218,0.217,0.125,0.079,south,3.3,No
2022/11/18,16:10,0.157,0.143,0.224,0.219,0.217,0.126,0.080,south-southwest,3.0,No
2022/11/18,16:20,0.157,0.142,0.223,0.218,0.217,0.126,0.079,south-southwest,3.7,No
2022/11/18,16:30,0.158,0.143,0.223,0.218,0.216,0.127,0.079,south,3.1,No
2022/11/18,16:40,0.157,0.142,0.223,0.218,0.217,0.125,0.080,south-southwest,4.2,No
2022/11/18,16:50,0.157,0.144,0.223,0.218,0.217,0.126,0.079,south-southwest,4.3,No
2022/11/18,17:00,0.158,0.143,0.223,0.217,0.216,0.127,0.080,south-southwest,4.1,No
2022/11/18,17:10,0.158,0.144,0.222,0.218,0.218,0.127,0.080,south-southwest,4.5,No
2022/11/18,17:20,0.157,0.143,0.223,0.218,0.215,0.127,0.079,south-southwest,4.7,No
2022/11/18,17:30,0.158,0.144,0.222,0.218,0.216,0.126,0.080,south-southwest,5.6,No
2022/11/18,17:40,0.158,0.143,0.222,0.219,0.216,0.126,0.079,south-southwest,5.5,No
2022/11/18,17:50,0.158,0.144,0.223,0.218,0.215,0.127,0.079,south-southwest,5.7,No
2022/11/18,18:00,0.158,0.143,0.222,0.219,0.217,0.125,0.080,south-southwest,5.8,No
2022/11/18,18:10,0.158,0.144,0.223,0.219,0.217,0.126,0.079,south-southwest,5.1,No
2022/11/18,18:20,0.158,0.144,0.222,0.218,0.216,0.126,0.080,south-southwest,6.4,No
2022/11/18,18:30,0.158,0.144,0.223,0.217,0.218,0.126,0.080,south-southwest,6.4,No
2022/11/18,18:40,0.158,0.143,0.222,0.218,0.216,0.126,0.079,south-southwest,6.7,No
2022/11/18,18:50,0.159,0.142,0.222,0.218,0.216,0.126,0.080,south-southwest,6.9,No
2022/11/18,19:00,0.158,0.143,0.223,0.219,0.216,0.126,0.080,south-southwest,6.9,No
2022/11/18,19:10,0.158,0.144,0.223,0.219,0.216,0.126,0.080,southwest,6.4,No
2022/11/18,19:20,0.158,0.143,0.222,0.218,0.216,0.127,0.080,south-southwest,7.5,No
2022/11/18,19:30,0.158,0.144,0.223,0.218,0.216,0.127,0.080,south-southwest,7.2,No
2022/11/18,19:40,0.159,0.143,0.224,0.218,0.216,0.125,0.080,southwest,7.2,No
2022/11/18,19:50,0.157,0.143,0.222,0.218,0.217,0.126,0.079,south-southwest,6.2,No
2022/11/18,20:00,0.158,0.143,0.222,0.219,0.216,0.126,0.079,south-southwest,6.1,No
2022/11/18,20:10,0.157,0.143,0.223,0.218,0.216,0.125,0.079,southwest,6.2,No
2022/11/18,20:20,0.159,0.143,0.222,0.217,0.217,0.127,0.080,southwest,5.7,No
2022/11/18,20:30,0.158,0.143,0.223,0.217,0.217,0.125,0.079,southwest,5.1,No
2022/11/18,20:40,0.158,0.143,0.222,0.218,0.217,0.127,0.080,southwest,5.1,No
2022/11/18,20:50,0.158,0.143,0.223,0.218,0.216,0.127,0.080,southwest,4.2,No
2022/11/18,21:00,0.158,0.143,0.223,0.217,0.219,0.126,0.080,southwest,3.8,No
2022/11/18,21:10,0.158,0.144,0.224,0.218,0.216,0.126,0.080,southwest,4.4,No
2022/11/18,21:20,0.158,0.143,0.223,0.218,0.216,0.126,0.080,southwest,5.6,No
2022/11/18,21:30,0.157,0.143,0.223,0.216,0.217,0.126,0.079,southwest,6.3,No
2022/11/18,21:40,0.158,0.144,0.223,0.218,0.215,0.126,0.080,southwest,6.3,No
2022/11/18,21:50,0.157,0.144,0.223,0.218,0.217,0.126,0.080,southwest,5.9,No
2022/11/18,22:00,0.157,0.144,0.222,0.217,0.216,0.126,0.080,southwest,5.6,No
2022/11/18,22:10,0.156,0.143,0.224,0.219,0.216,0.127,0.080,west-southwest,4.4,No
2022/11/18,22:20,0.158,0.142,0.222,0.218,0.218,0.126,0.080,west-southwest,4.3,No
2022/11/18,22:30,0.158,0.144,0.222,0.218,0.216,0.126,0.080,west-southwest,4.3,Yes
2022/11/18,22:40,0.158,0.144,0.223,0.219,0.218,0.126,0.080,west-southwest,5.3,Yes
2022/11/18,22:50,0.157,0.144,0.223,0.218,0.216,0.126,0.080,west-southwest,5.4,Yes
2022/11/18,23:00,0.158,0.143,0.223,0.219,0.218,0.125,0.081,west-southwest,5.6,No
2022/11/18,23:10,0.158,0.143,0.223,0.218,0.217,0.125,0.080,west-southwest,5.9,Yes
2022/11/18,23:20,0.159,0.144,0.223,0.218,0.216,0.127,0.080,west-southwest,5.3,Yes
2022/11/18,23:30,0.157,0.144,0.223,0.218,0.217,0.126,0.080,southwest,4.9,No
2022/11/18,23:40,0.158,0.142,0.224,0.218,0.217,0.126,0.080,southwest,6.0,No
2022/11/18,23:50,0.159,0.143,0.223,0.218,0.217,0.126,0.080,southwest,4.5,No
